User: anonymous   Login
Location: CNYAC Observatory
(43.2150°N, 74.9500°W)
Time: 01:40:14
(UTC-05:00)
Language:

Cosmos 1300 Rocket - Orbit

View from above orbital plane
View from above orbital plane
View from above satellite
View from above satellite

Ground track
Ground track

The orbit data is extracted from the following two-line orbital elements,

1 12786U 81082B   14351.98889251  .00000473  00000-0  53496-4 0   690
2 12786 082.4898 107.2862 0018016 030.3509 329.8745 14.84296440799473
Epoch (UTC): 17 December 2014 23:44:00
Eccentricity: 0.0018016
inclination: 82.4898°
perigee height: 603 km
apogee height: 628 km
right ascension of ascending node: 107.2862°
argument of perigee: 30.3509°
revolutions per day: 14.84296440
mean anomaly at epoch: 329.8745°
orbit number at epoch: 79947

The dashed part of the orbit path shows where the satellite is in the earth's shadow,  

DLR